Regional Weather Roundup
Issued by NWS

Home | Current Version | Previous Version | Graphics & Text | Print | Product List | Glossary On
Versions: 1 2 3 4 5 6 7 8 9 10 11 12 13 14 15 16 17 18 19 20 21 22 23 24 25 26 27 28 29 30 31 32 33 34 35 36 37 38 39 40 41 42 43 44 45 46 47 48 49 50
498
ASUS43 KOAX 240602
RWRNE

WEATHER ROUNDUP FOR NEBRASKA
NATIONAL WEATHER SERVICE OMAHA NE
100 AM CDT SAT JUN 24 2017

NOTES: SATELLITE DATA IS BEING USED TO AUGMENT CLOUD COVER ABOVE
       12000 FEET.
       "FAIR" INDICATES FEW OR NO CLOUDS BELOW 12,000 FEET WITH NO
       SIGNIFICANT WEATHER AND/OR OBSTRUCTIONS TO VISIBILITY.

  * THESE STATIONS DO NOT REPORT WEATHER SUCH AS RAIN...SNOW OR FOG.

NEZ001>004-019>022-054>056-240700-
NEBRASKA PANHANDLE

CITY           SKY/WX    TMP DP  RH WIND       PRES   REMARKS
SCOTTSBLUFF    PTCLDY    54  35  48 NE6       30.29R
6HR MIN TEMP:  52; 6HR MAX TEMP:  74;

ALLIANCE       MOCLDY    48  39  71 VRB5      30.29R
6HR MIN TEMP:  44; 6HR MAX TEMP:  71;

CHADRON        CLEAR     45  37  73 SW6       30.27R
6HR MIN TEMP:  43; 6HR MAX TEMP:  73;

GORDON         FAIR      46  36  70 CALM      30.26R
6HR MIN TEMP:  45; 6HR MAX TEMP:  69;

KIMBALL        CLOUDY    55  39  56 CALM      30.33R
SIDNEY         PTCLDY    48  34  58 N5        30.30R
6HR MIN TEMP:  48; 6HR MAX TEMP:  72;

$$

NEZ057>060-069>072-079>082-240700-
SOUTHWEST NEBRASKA

CITY           SKY/WX    TMP DP  RH WIND       PRES   REMARKS
NORTH PLATTE   CLEAR     50  40  68 CALM      30.24R
6HR MIN TEMP:  49; 6HR MAX TEMP:  76;

IMPERIAL       CLEAR     51  41  68 CALM      30.26R
6HR MIN TEMP:  50; 6HR MAX TEMP:  77;

LEXINGTON      CLEAR     49  45  84 NW7       30.22R
MCCOOK         CLEAR     59  44  57 CALM      30.23R
6HR MIN TEMP:  55; 6HR MAX TEMP:  79;

OGALLALA       CLEAR     53  39  59 NE7       30.26S
$$

NEZ005>010-023>029-035>040-094-240700-
NORTH CENTRAL NEBRASKA

CITY           SKY/WX    TMP DP  RH WIND       PRES   REMARKS
VALENTINE      CLEAR     50  31  48 NW8       30.22R
6HR MIN TEMP:  47; 6HR MAX TEMP:  73;

AINSWORTH      CLEAR     50  37  60 W6        30.22R
BROKEN BOW     CLEAR     50  40  68 N8        30.21R
6HR MIN TEMP:  50; 6HR MAX TEMP:  73;

O`NEILL        CLEAR     49  41  74 W5        30.18S
ORD            CLEAR     53  37  54 W6        30.19R
6HR MIN TEMP:  50; 6HR MAX TEMP:  72;

THEDFORD       CLEAR     50  36  58 W3        30.25R
$$

NEZ041-046>049-061>064-073>077-083>087-240700-
SOUTH CENTRAL NEBRASKA

CITY           SKY/WX    TMP DP  RH WIND       PRES   REMARKS
GRAND ISLAND   CLEAR     57  43  59 N7        30.18R
6HR MIN TEMP:  54; 6HR MAX TEMP:  74;

AURORA         PTCLDY    54  46  73 N6        30.17S
HASTINGS       CLEAR     56  45  66 SW3       30.19R
6HR MIN TEMP:  56; 6HR MAX TEMP:  75;

HEBRON         CLEAR     57  50  78 CALM      30.16R
HOLDREGE       CLEAR     53  45  75 W3        30.21R
KEARNEY *      CLEAR     57  43  58 NW6       30.21R
$$

NEZ011>018-030>034-042>045-240700-
NORTHEAST NEBRASKA

CITY           SKY/WX    TMP DP  RH WIND       PRES   REMARKS
NORFOLK        CLEAR     52  39  61 NW6       30.15R
6HR MIN TEMP:  52; 6HR MAX TEMP:  71;

ALBION         CLEAR     47  40  78 NW6       30.18R
BLAIR          CLEAR     59  43  56 NW3       30.12R
FREMONT        CLEAR     55  46  70 W3        30.14R
TEKAMAH        CLEAR     57  43  59 NW7       30.12R
6HR MIN TEMP:  57; 6HR MAX TEMP:  73;

WAYNE          CLEAR     49  42  77 CALM      30.14R
$$

NEZ050>053-065>068-078-088>093-240700-
SOUTHEAST NEBRASKA

CITY           SKY/WX    TMP DP  RH WIND       PRES   REMARKS
LINCOLN        CLEAR     54  50  86 N3        30.15R
6HR MIN TEMP:  53; 6HR MAX TEMP:  76;

OMAHA EPPLEY   CLEAR     60  47  61 CALM      30.12R
6HR MIN TEMP:  59; 6HR MAX TEMP:  74;

BEATRICE       CLEAR     56  51  84 CALM      30.15R
FALLS CITY     CLEAR     59  53  80 NW5       30.10S
6HR MIN TEMP:  59; 6HR MAX TEMP:  74;

NEBRASKA CITY  CLEAR     61  52  73 NW8       30.12S
PLATTSMOUTH    CLEAR     59  49  68 NW6       30.12R
$$

NEZ044-045-051>053-067-240700-
OMAHA AREA

CITY           SKY/WX    TMP DP  RH WIND       PRES   REMARKS
OMAHA EPPLEY   CLEAR     60  47  61 CALM      30.12R
6HR MIN TEMP:  59; 6HR MAX TEMP:  74;

BLAIR          CLEAR     59  43  56 NW3       30.12R
FREMONT        CLEAR     55  46  70 W3        30.14R
MILLARD        CLEAR     61  50  67 NW5       30.13R
OFFUTT AFB     CLEAR     56  49  75 NW9       30.11R
PLATTSMOUTH    CLEAR     59  49  68 NW6       30.12R
WAHOO          FAIR      60  41  48 NW7       30.13R
$$




USA.gov is the U.S. government's official web portal to all federal, state and local government web resources and services.